Regional Weather Roundup
Issued by NWS

Home | Current Version | Previous Version | Graphics & Text | Print | Product List | Glossary On
Versions: 1 2 3 4 5 6 7 8 9 10 11 12 13 14 15 16 17 18 19 20 21 22 23 24 25 26 27 28 29 30 31 32 33 34 35 36 37 38 39 40 41 42 43 44 45 46 47 48 49 50
000
ASUS43 KLMK 010802
RWRKY
KENTUCKY REGIONAL WEATHER ROUNDUP
NATIONAL WEATHER SERVICE LOUISVILLE KY
400 AM EDT SAT AUG 01 2015

NOTE "FAIR" INDICATES FEW OR NO CLOUDS BELOW 12,000 FEET
WITH NO SIGNIFICANT WEATHER AND/OR OBSTRUCTIONS TO VISIBILITY.

KYZ001>023-026-027-061>063-070>075-010900-
WESTERN AND SOUTH CENTRAL KENTUCKY

CITY           SKY/WX    TMP DP  RH WIND       PRES   REMARKS
PADUCAH        CLEAR     69  66  90 SW3       30.02F
HENDERSON      CLEAR     70  64  83 SW3       30.00F
OWENSBORO      CLEAR     73  69  87 CALM      30.01F
HOPKINSVILLE   CLEAR     70  67  91 SW3       30.02F
BOWLING GREEN  CLEAR     68  64  87 CALM      30.02F
GLASGOW        NOT AVBL
$$

KYZ024-025-028>034-038-045-046-053-010900-
NORTH CENTRAL KENTUCKY

CITY           SKY/WX    TMP DP  RH WIND       PRES   REMARKS
LOUISVILLE/SDF PTCLDY    74  65  73 CALM      29.99F
LOUISVILLE/LOU CLEAR     70  64  81 CALM      30.00F
FORT KNOX      PTCLDY    67  64  90 W3        29.99F
$$

KYZ035>037-039>044-047>052-055>060-089>105-010900-
NORTHEAST KENTUCKY

CITY           SKY/WX    TMP DP  RH WIND       PRES   REMARKS
LEXINGTON      CLEAR     68  61  78 CALM      30.01F
COVINGTON      CLEAR     67  60  78 W3        29.99F
FRANKFORT      CLEAR     65  61  87 CALM      29.99F
$$

KYZ054-064>069-076>088-106>120-010900-
SOUTHEAST KENTUCKY

CITY           SKY/WX    TMP DP  RH WIND       PRES   REMARKS
JACKSON        CLEAR     66  61  84 CALM      30.03S
LONDON         CLEAR     64  59  83 CALM      30.04F
SOMERSET       NOT AVBL
MIDDLESBORO    CLEAR     60  60  98 CALM      30.07S
MONTICELLO     SUNNY     61  61 100 CALM      30.07S
$$



USA.gov is the U.S. government's official web portal to all federal, state and local government web resources and services.